Flag for Canada Weather past 2 weeks in London, Ontario, Canada

Now
41 °F

Passing clouds.


Feels Like: 32 °F
Forecast: 41 / 62 °F
Wind: 17 mph from East

Location: London Weather Station

Current Time: Apr 19, 2015 at 7:20:36 AM

Latest Report: Apr 19, 2015 at 6:00 AM


Visibility: 15 mi

Pressure: 30.14 "Hg

Humidity: 61%

Dew point: 28 °F

Location of LondonLocation

Historic Weather in London — Graph

°F

London temperature yesterday

Maximum temperature yesterday: 66 °F (at 1:00 PM)
Minimum temperature yesterday: 46 °F (at 5:00 AM)
Average temperature yesterday: 56 °F

Past Weeks' High & Low Weather Summary

 TemperatureHumidityPressure
High72 °F (Apr 13, 3:00 PM)100% (Apr 5, 12:00 AM)30.40 "Hg (Apr 5, 12:00 AM)
Low27 °F (Apr 4, 7:00 AM)21% (Apr 18, 5:00 PM)29.45 "Hg (Apr 10, 8:00 AM)
Average45 °F73%30.11 "Hg
* Reported Apr 4 6:00 AM — Apr 19 6:00 AM, London, Weather by CustomWeather, © 2015

Note: Actual official high and low records may vary slightly from our data, if they occured in-between our weather recording intervals... More about our weather records

Advertising

London weather history for previous 24 hours

 ConditionsComfort  
Time TempWeatherWind HumidityBarometerVisibility
6:00 AM
Sun, Apr 19
41 °FPassing clouds.17 mph61%30.14 "Hg15 mi
5:00 AM41 °FPassing clouds.16 mph61%30.14 "Hg15 mi
4:00 AM43 °FClear.13 mph57%30.15 "Hg15 mi
3:00 AM43 °FClear.14 mph57%30.15 "Hg15 mi
2:00 AM43 °FClear.12 mph57%30.17 "Hg15 mi
1:00 AM45 °FClear.9 mph57%30.18 "Hg15 mi
12:00 AM46 °FClear.12 mph53%30.17 "Hg15 mi
11:00 PM
Sat, Apr 18
48 °FClear.10 mph50%30.17 "Hg15 mi
10:00 PM50 °FClear.9 mph47%30.16 "Hg15 mi
9:00 PM54 °FPartly sunny.6 mph38%30.16 "Hg15 mi
8:00 PM55 °FPartly sunny.7 mph33%30.14 "Hg15 mi
7:00 PM61 °FPartly sunny.12 mph27%30.12 "Hg15 mi
6:00 PM63 °FPartly sunny.10 mph24%30.13 "Hg15 mi
5:00 PM64 °FPartly sunny.14 mph21%30.12 "Hg15 mi
4:00 PM64 °FPartly sunny.15 mph24%30.10 "Hg15 mi
3:00 PM64 °FScattered clouds.13 mph28%30.09 "Hg15 mi
2:00 PM64 °FPartly sunny.14 mph30%30.08 "Hg15 mi
1:00 PM66 °FPassing clouds.14 mph28%30.07 "Hg15 mi
12:00 PM64 °FPassing clouds.17 mph40%30.07 "Hg15 mi
11:00 AM63 °FPassing clouds.12 mph52%30.06 "Hg15 mi
10:00 AM61 °FPassing clouds.15 mph59%30.04 "Hg15 mi
9:00 AM55 °FPassing clouds.6 mph72%30.03 "Hg12 mi
8:00 AM50 °FPartly sunny.6 mph82%30.03 "Hg10 mi
7:00 AM48 °FPassing clouds.6 mph87%30.00 "Hg10 mi
Weather by CustomWeather, © 2015

See weather overviewHow to use our weather pages